Regional Weather Roundup
Issued by NWS Midland/Odessa, TX

Skip options and go directly to product.
Home | Oldest Version | Previous Version | Current Version | All | Text Only | Save Text | Print | Product List | Glossary Off

Skip product version selection by date and time.   

782
ASUS44 KMAF 051010
RWRMAF
MIDLAND AREA WEATHER ROUNDUP
NATIONAL WEATHER SERVICE MIDLAND TX
400 AM CST MON DEC 05 2016

...IN SOUTHWEST TEXAS AND SOUTHEAST NEW MEXICO...

CITY           SKY/WX    TMP DP  RH WIND       PRES   REMARKS
ALPINE         CLOUDY    38  38  99 CALM      30.02F
ANDREWS        FAIR      37  36  98 CALM      29.96S
ARTESIA        FOG       30  30 100 S7        29.95F VSB 1/2 WCI  23
BIG SPRING     CLOUDY    42  41  96 CALM      29.98S
CARLSBAD       CLEAR     29  29 100 N3        29.94F
DRYDEN         NOT AVBL
FORT STOCKTON  CLOUDY    42  42 100 W6        29.97F WCI  38
GUAD PASS      FOG       33  33 100 SW13      29.96F VSB 1/4 WCI  24
HOBBS          CLOUDY    30  30 100 W8        29.96F WCI  23
MARFA          CLOUDY    38  38 100 CALM      29.98F
MIDLAND AIRPK  PTCLDY    41  38  90 CALM      29.96F
MIDLAND INTL   PTCLDY    40  37  89 W5        29.96F WCI  37
ODESSA         PTCLDY    40  36  86 W3        29.97S
PECOS          CLOUDY    41  39  91 CALM      29.98F
PRESIDIO       RAIN      44  43  97 CALM      29.98F
SEMINOLE       CLOUDY    33  32  97 NW5       29.95F WCI  28
SNYDER         PTCLDY    39  38  97 CALM      29.95F
WINK           CLOUDY    38  38 100 CALM      29.96F
$$
...OTHER STATIONS IN TEXAS...

CITY           SKY/WX    TMP DP  RH WIND       PRES   REMARKS
ABILENE        CLOUDY    43  41  93 N3        29.96F
AMARILLO       CLOUDY    31  28  89 SW13      29.88F WCI  21
AUSTIN         LGT RAIN  49  47  93 N13       29.91S
BROWNSVILLE    CLOUDY    55  52  89 NW12      29.86S
CORPUS CHRISTI LGT RAIN  52  52 100 NW10      29.89R
DALLAS FTW     CLOUDY    48  41  76 N8        29.95F
DEL RIO        LGT RAIN  49  48  97 W7        29.96S
EL PASO        CLEAR     35  31  85 SE5       29.98F WCI  31
HOUSTON INT    LGT RAIN  50  48  93 N9        29.88R FOG
LUBBOCK        PTCLDY    31  29  92 W5        29.93F WCI  26
SAN ANGELO     MOCLDY    42  41  96 CALM      29.95F
SAN ANTONIO    RAIN      48  46  93 NE7       29.91R FOG
WACO           CLOUDY    48  45  89 N9        29.94F
WICHITA FALLS  NOT AVBL
$$
...OTHER LOCATIONS IN NEW MEXICO...

CITY           SKY/WX    TMP DP  RH WIND       PRES   REMARKS
ALAMAGORDO     NOT AVBL
ALBUQUERQUE    CLOUDY    29  13  51 S5        29.98F WCI  24
CANNON AFB     CLOUDY    29  29 100 SW8       29.90F WCI  21
CLOVIS         CLOUDY    28  25  86 SW9       29.90F WCI  20
HOLLOMAN AFB   CLOUDY    24  18  77 CALM      30.03F
ROSWELL        CLEAR     27  24  89 S6        29.94F WCI  20
RUIDOSO        CLOUDY    34   9  35 W7        29.98S WCI  28
SANTA FE       CLOUDY    19  14  81 N7        29.94F WCI  10
TRUTH OR CONSE CLEAR     31  18  58 NW3       29.99F
TUCUMCARI      CLOUDY    36  26  67 SW15      29.80F WCI  27
$$

  • National Weather Service
  • Southern Region Headquarters
  • 819 Taylor Street, Room 10A06
  • Fort Worth, TX 76102
  • Page Author: NWS Fort Worth
  • Web Master: SR-SRH.Webmaster@noaa.gov
  •  
  • Page last modified: 30-Sep-2016 6:36 PM UTC
USA.gov is the U.S. government's official web portal to all federal, state and local government web resources and services.